SCP
0 0 0 0 0 0 0 0 0 0 0 0 0 0 0 0 0 0 0 0 0 0 0 0 0 0 0 0 0 0 0 0 0 0 0 0 0 0 0 0 0 0 0
0 0 0 0 0 0 0 0 0 0 0 0 0 0 0 0 0 0 0 0 0 0 0 0 0 0 0 0 0 0 0 0 0 0 0 0 0 0 0 0 0 0 0
0 0 0 0 0 0 0 0 0 0 0 0 0 0 0 0 0 0 0 0 0 0 0 0 0 0 0 0 0 0 0 0 0 0 0 0 0 0 0 0 0 0 0
0 0 0 0 0 0 0 0 0 0 0 0 0 0 0 0 0 0 0 0 0 0 0 0 0 0 0 0 0 0 0 0 0 0 0 0 0 0 0 0 0 0 0
0 0 0 0 0 0 0 0 0 0 0 0 0 0 0 0 0 0 0 0 0 0 0 0 0 0 0 0 0 0 0 0 0 0 0 0 0 0 0 0 0 0 0
0 0 0 0 0 0 0 0 0 0 0 0 0 0 0 0 0 0 0 0 0 0 0 0 0 0 0 0 0 0 0 0 0 0 0 0 0 0 0 0 0 0 0
0 0 0 0 0 0 0 0 0 0 0 0 0 0 0 0 0 0 0 0 0 0 0 0 0 0 0 0 0 0 0 0 0 0 0 0 0 0 0 0 0 0 0
0 0 0 0 0 0 0 0 0 0 0 0 0 0 0 0 0 0 0 0 0 0 0 0 0 0 0 0 0 0 0 0 0 0 0 0 0 0 0 0 0 0 0
0 0 0 0 0 0 0 0 0 0 0 0 0 0 0 0 0 0 0 0 0 0 0 0 0 0 0 0 0 0 0 0 0 0 0 0 0 0 0 0 0 0 0
0 0 0 0 0 0 0 0 0 0 0 0 0 0 0 0 0 0 0 0 0 0 0 0 0 0 0 0 0 0 0 0 0 0 0 0 0 0 0 0 0 0 0
0 0 0 0 0 0 0 0 0 0 0 0 0 0 0 0 0 0 0 0 0 0 0 0 0 0 0 0 0 0 0 0 0 0 0 0 0 0 0 0 0 0 0
0 0 0 0 0 0 0 0 0 0 0 0 0 0 0 0 0 0 0 0 0 0 0 0 0 0 0 0 0 0 0 0 0 0 0 0 0 0 0 0 0 0 0
0 0 0 0 0 0 0 0 0 0 0 0 0 0 0 0 0 0 0 0 0 0 0 0 0 0 0 0 0 0 0 0 0 0 0 0 0 0 0 0 0 0 0
0 0 0 0 0 0 0 0 0 0 0 0 0 0 0 0 0 0 0 0 0 0 0 0 0 0 0 0 0 0 0 0 0 0 0 0 0 0 0 0 0 0 0
0 0 0 0 0 0 0 0 0 0 0 0 0 0 0 0 0 0 0 0 0 0 0 0 0 0 0 0 0 0 0 0 0 0 0 0 0 0 0 0 0 0 0
0 0 0 0 0 0 0 0 0 0 0 0 0 0 0 0 0 0 0 0 0 0 0 0 0 0 0 0 0 0 0 0 0 0 0 0 0 0 0 0 0 0 0
0 0 0 0 0 0 0 0 0 0 0 0 0 0 0 0 0 0 0 0 0 0 0 0 0 0 0 0 0 0 0 0 0 0 0 0 0 0 0 0 0 0 0
0 0 0 0 0 0 0 0 0 0 0 0 0 0 0 0 0 0 0 0 0 0 0 0 0 0 0 0 0 0 0 0 0 0 0 0 0 0 0 0 0 0 0
0 0 0 0 0 0 0 0 0 0 0 0 0 0 0 0 0 0 0 0 0 0 0 0 0 0 0 0 0 0 0 0 0 0 0 0 0 0 0 0 0 0 0
0 0 0 0 0 0 0 0 0 0 0 0 0 0 0 0 0 0 0 0 0 0 0 0 0 0 -0 -0 -0 -0 -0 0 0 0 0 0 0 0 0 0 0 0 0
0 0 0 0 0 0 0 0 0 0 0 0 0 0 0 0 0 0 0 0 0 0 0 0 0 0 -0 -0 0 -0 0 -0 0 -0 0 0 0 0 0 0 0 0 0
0 0 0 0 0 0 0 0 0 0 0 0 0 0 0 0 0 0 0 0 0 0 0 0 0 0 0 0 0 0 0 0 -0 -0 0 0 0 0 0 0 0 -0 -0
0 0 0 0 0 0 0 0 0 0 0 0 0 0 0 0 0 0 0 0 0 0 0 0 0 0 0 0 0 0 0 0 0 0 0 0 0 0 0 0 0 0 -0
0 0 0 0 0 0 0 0 0 0 0 0 0 0 0 0 0 0 0 0 0 0 0 0 0 0 0 0 0 0 0 0 0 0 0 0 0 0 0 0 0 0 0
0 0 0 0 0 0 0 0 0 0 0 0 0 0 0 0 0 0 0 0 0 0 0 0 0 0 0 0 0 0 -0 -0 -0 -0 -0 -0 0 0 0 0 0 0 0
0 0 0 0 0 0 0 0 0 0 0 0 0 0 0 0 0 0 0 -0 -0 -0 -0 -0 -0 0 -0 -0 -0 -0 -0 -0 -0 -0 -0 -0 -0 -0 -0 -0 0 0 0
Wind_Speed_500mb
59 54 49 47 44 41 35 32 33 33 37 39 38 35 32 34 31 27 26 27 24 24 30 32 30 26 24 22 25 26 27 24 22 21 21 21 21 21 22 21 19 19 18
57 53 51 48 47 42 36 31 33 35 36 38 37 36 36 36 35 34 32 31 30 30 32 36 38 33 30 28 30 31 34 31 27 26 25 25 25 25 24 24 23 22 20
57 54 51 49 47 44 39 36 34 34 36 40 40 40 41 42 41 40 37 36 36 37 37 44 47 41 34 33 38 37 37 37 34 30 30 29 28 28 28 26 26 24 21
56 53 51 49 48 45 42 42 35 37 36 38 41 43 45 46 46 45 42 41 42 43 48 53 54 52 47 43 44 45 44 41 37 36 34 34 33 32 30 29 28 27 24
57 54 52 49 50 48 44 42 42 40 38 41 42 45 48 50 51 50 49 47 47 48 51 54 56 55 54 52 52 51 48 45 42 41 40 38 37 35 34 33 33 31 30
61 58 54 54 54 50 45 54 48 45 40 41 44 49 51 54 56 57 54 53 53 53 55 59 59 59 60 59 57 56 53 50 48 46 44 42 41 40 40 39 39 38 37
61 60 56 57 58 55 56 56 54 52 47 47 45 52 56 60 63 64 61 62 60 59 60 62 62 63 62 61 59 57 56 54 53 51 49 47 46 45 45 46 45 43 44
62 59 56 60 61 60 63 63 62 60 59 54 53 56 51 60 71 71 70 69 68 65 68 67 65 64 63 62 60 59 58 57 57 55 53 52 52 51 51 51 50 50 48
58 59 62 64 66 68 69 65 66 65 66 61 61 53 24 33 44 51 65 76 76 74 72 68 67 63 62 60 59 60 58 59 58 59 58 57 56 57 57 56 56 53 52
61 58 66 69 71 74 75 67 67 66 69 70 65 71 69 70 47 32 40 40 55 67 73 72 66 62 59 57 57 56 57 59 59 60 61 60 60 62 63 63 62 58 55
66 65 67 71 72 77 74 72 71 77 77 73 72 74 73 80 81 76 68 63 64 63 58 59 60 59 59 57 55 54 56 58 59 59 61 61 64 67 68 69 69 64 63
76 72 70 74 73 82 79 81 74 78 83 81 76 81 74 72 76 80 82 82 80 72 63 59 61 57 54 53 52 52 56 58 59 59 60 62 66 68 70 73 74 73 72
68 75 75 73 81 82 83 86 81 74 81 83 84 86 82 83 74 73 60 61 67 68 68 62 48 38 35 37 45 56 57 58 62 63 64 66 69 72 74 76 78 80 80
65 75 82 84 84 86 92 84 79 78 76 81 80 79 77 74 68 64 60 54 54 60 58 51 44 40 46 56 43 43 48 54 59 64 70 74 78 81 83 84 85 86 86
70 80 85 90 89 87 88 85 74 66 63 69 70 67 64 63 61 51 51 47 42 32 42 45 48 48 61 48 51 58 65 65 66 71 76 81 87 92 94 93 93 91 87
65 68 67 74 67 64 71 61 55 53 56 54 51 45 42 37 35 41 40 43 40 41 48 55 58 57 54 57 60 66 72 75 78 81 84 90 96 99 101 101 101 98 95
48 47 46 47 53 49 38 43 42 34 39 27 24 21 22 23 24 26 32 45 53 58 59 70 66 59 67 74 79 82 84 89 93 95 90 95 97 100 104 105 106 105 104
24 24 25 22 22 23 26 22 18 20 23 29 34 35 35 43 52 58 57 52 47 42 50 71 75 78 83 83 81 81 82 83 88 91 89 91 94 95 97 99 103 106 107
27 25 21 21 18 15 14 12 14 13 12 4 6 7 12 17 23 28 33 36 39 44 49 61 74 74 76 75 79 81 83 88 91 94 96 97 96 96 97 96 96 98 101
40 40 39 38 36 30 31 25 21 17 11 9 13 15 17 20 22 26 30 35 39 45 51 59 68 72 73 73 72 78 91 93 104 105 109 109 108 111 110 107 105 105 102
50 47 44 42 39 37 36 28 24 23 21 19 19 19 21 23 28 33 40 44 46 47 49 53 59 65 64 67 70 76 85 95 97 85 88 93 92 99 109 113 116 116 104
47 44 45 42 43 47 39 34 30 29 28 29 30 30 28 29 33 37 41 43 44 45 47 50 58 68 76 79 85 86 84 90 100 80 85 112 94 108 102 101 106 100 95
49 53 54 51 50 48 44 41 37 35 33 34 35 36 41 44 45 47 48 48 47 47 49 55 62 66 73 77 84 92 92 93 101 108 101 124 91 94 87 92 91 95 92
51 52 53 53 51 52 45 42 40 40 40 42 43 44 45 47 53 58 60 59 59 56 57 61 64 66 67 71 73 76 84 95 104 108 99 118 114 109 102 105 108 89 84
51 52 50 48 48 49 46 45 41 41 43 46 49 50 52 56 62 67 69 69 68 66 65 65 67 69 72 74 75 83 88 95 112 113 93 55 75 110 111 116 93 76 80
51 49 48 49 46 45 41 40 42 42 45 49 52 56 59 64 67 71 74 72 74 76 79 79 77 77 78 78 76 72 76 83 88 91 58 92 92 76 79 85 77 99 89
Wind_Direction_500mb
190 189 190 192 193 196 201 200 203 209 209 207 210 220 228 230 237 245 250 241 231 209 230 238 255 253 277 302 302 304 306 309 301 294 290 290 291 290 292 294 291 289 293
192 193 194 195 196 199 204 203 212 216 218 221 226 229 233 237 244 249 250 244 235 216 227 235 250 252 262 287 291 297 300 303 298 291 287 285 285 285 286 288 289 287 287
197 198 197 200 201 203 205 205 205 216 225 230 233 236 240 244 247 249 250 243 238 231 218 230 238 249 258 275 285 290 292 293 292 287 284 283 282 283 284 288 289 288 283
201 201 203 206 205 206 210 213 218 230 242 238 240 241 243 245 248 249 248 245 244 239 239 234 246 259 268 274 278 283 285 287 286 284 282 281 282 283 285 286 286 284 280
205 206 209 210 205 211 216 222 225 233 249 244 243 245 246 248 250 251 250 249 248 244 245 247 253 258 265 271 275 277 280 283 283 281 280 280 282 284 284 284 284 282 283
209 211 213 212 207 213 222 224 228 239 245 252 250 250 250 251 252 252 252 250 249 247 248 249 253 258 263 266 268 271 274 277 277 275 276 278 280 281 281 281 282 283 284
214 215 219 215 217 217 221 228 234 239 241 245 251 254 254 255 255 254 253 252 250 249 249 251 255 259 262 265 266 266 269 271 271 273 274 275 275 276 277 277 279 281 281
220 222 227 223 224 216 227 234 236 241 244 244 247 251 260 263 261 259 258 256 254 252 253 253 257 261 265 265 265 266 266 266 268 271 273 273 273 274 274 277 279 278 278
230 228 228 227 230 227 230 238 240 245 251 250 250 242 246 249 268 268 264 261 258 256 256 257 260 264 266 266 266 266 266 266 266 268 271 272 273 274 275 275 275 275 275
235 235 234 233 234 235 237 239 247 248 252 251 251 248 254 255 265 278 276 273 266 263 262 261 263 267 266 266 268 270 268 267 267 266 268 271 272 272 273 274 274 275 275
236 238 238 237 238 237 239 241 248 250 253 251 257 259 255 256 256 259 270 271 268 270 268 266 266 269 269 271 272 274 273 272 270 270 270 271 271 272 272 274 274 275 276
237 237 239 239 241 240 239 241 251 252 252 260 257 256 259 262 264 260 262 267 272 274 271 268 270 270 271 275 278 282 279 276 276 275 274 274 274 275 273 275 275 275 275
243 244 245 245 245 243 243 245 249 255 252 254 256 257 260 264 263 268 272 275 274 276 276 274 269 267 273 280 290 281 280 280 278 279 279 278 277 277 276 276 277 277 276
258 255 253 247 248 244 245 245 252 257 253 253 257 260 264 265 261 263 268 270 277 274 269 266 269 278 288 289 281 283 285 283 283 283 282 281 280 279 279 280 280 279 278
260 262 258 247 242 241 247 246 248 250 253 258 261 264 264 264 261 260 263 266 269 282 280 275 282 290 286 279 280 283 282 285 285 286 285 283 284 282 282 282 281 279 275
257 258 256 252 248 253 251 242 247 251 257 260 262 264 257 255 253 264 266 268 266 277 280 282 280 282 281 280 278 284 281 282 282 284 285 282 282 281 281 281 280 277 274
275 283 284 278 272 269 272 258 255 249 246 260 263 265 270 272 281 269 267 268 271 269 277 283 283 283 285 283 282 285 286 284 281 282 284 282 281 280 280 280 279 277 275
339 340 327 311 299 283 260 293 291 307 312 305 295 285 274 270 264 266 268 272 275 287 293 296 297 298 299 301 301 301 298 294 291 289 288 286 284 284 283 282 281 280 278
53 57 56 55 57 46 49 46 47 52 48 332 272 290 293 296 296 300 306 306 303 298 295 298 300 303 306 311 311 307 306 303 300 299 297 294 293 291 289 287 284 282 280
75 73 72 71 73 72 66 60 58 59 53 15 357 346 339 336 332 327 325 325 322 320 318 316 313 316 321 323 321 319 314 312 310 308 304 303 301 300 299 296 294 291 288
81 82 82 81 79 74 65 56 53 56 52 41 32 18 2 349 338 338 336 332 329 325 325 322 320 320 324 326 323 318 314 313 311 308 304 304 303 300 299 298 297 298 295
80 76 70 68 69 68 60 53 42 34 26 17 16 14 10 1 358 358 355 352 348 347 340 328 325 324 320 317 313 312 311 309 311 312 308 302 298 294 293 292 292 290 285
74 68 65 62 62 62 59 56 49 47 43 40 32 25 18 12 6 2 357 351 346 342 334 329 326 325 322 322 318 318 316 311 307 306 307 298 300 296 293 298 293 289 282
66 65 63 63 64 65 61 56 50 46 41 37 30 23 14 6 0 353 349 346 342 339 334 333 330 327 325 323 323 319 315 312 306 308 312 305 308 305 301 290 287 287 286
66 63 62 61 60 63 57 52 47 42 36 30 22 14 6 360 355 348 345 342 338 334 332 331 328 324 324 324 326 323 325 323 318 318 325 306 304 307 310 308 310 303 293
64 63 60 57 53 53 48 41 33 29 23 16 10 4 359 353 347 342 339 338 335 332 334 331 328 329 331 332 334 334 330 325 322 320 309 317 314 316 313 314 308 307 307
Wind_Speed_850mb
59 54 49 47 44 41 35 32 33 33 37 39 38 35 32 34 31 27 26 27 24 24 30 32 30 26 24 22 25 26 27 24 22 21 21 21 21 21 22 21 19 19 18
57 53 51 48 47 42 36 31 33 35 36 38 37 36 36 36 35 34 32 31 30 30 32 36 38 33 30 28 30 31 34 31 27 26 25 25 25 25 24 24 23 22 20
57 54 51 49 47 44 39 36 34 34 36 40 40 40 41 42 41 40 37 36 36 37 37 44 47 41 34 33 38 37 37 37 34 30 30 29 28 28 28 26 26 24 21
56 53 51 49 48 45 42 42 35 37 36 38 41 43 45 46 46 45 42 41 42 43 48 53 54 52 47 43 44 45 44 41 37 36 34 34 33 32 30 29 28 27 24
57 54 52 49 50 48 44 42 42 40 38 41 42 45 48 50 51 50 49 47 47 48 51 54 56 55 54 52 52 51 48 45 42 41 40 38 37 35 34 33 33 31 30
61 58 54 54 54 50 45 54 48 45 40 41 44 49 51 54 56 57 54 53 53 53 55 59 59 59 60 59 57 56 53 50 48 46 44 42 41 40 40 39 39 38 37
61 60 56 57 58 55 56 56 54 52 47 47 45 52 56 60 63 64 61 62 60 59 60 62 62 63 62 61 59 57 56 54 53 51 49 47 46 45 45 46 45 43 44
62 59 56 60 61 60 63 63 62 60 59 54 53 56 51 60 71 71 70 69 68 65 68 67 65 64 63 62 60 59 58 57 57 55 53 52 52 51 51 51 50 50 48
58 59 62 64 66 68 69 65 66 65 66 61 61 53 24 33 44 51 65 76 76 74 72 68 67 63 62 60 59 60 58 59 58 59 58 57 56 57 57 56 56 53 52
61 58 66 69 71 74 75 67 67 66 69 70 65 71 69 70 47 32 40 40 55 67 73 72 66 62 59 57 57 56 57 59 59 60 61 60 60 62 63 63 62 58 55
66 65 67 71 72 77 74 72 71 77 77 73 72 74 73 80 81 76 68 63 64 63 58 59 60 59 59 57 55 54 56 58 59 59 61 61 64 67 68 69 69 64 63
76 72 70 74 73 82 79 81 74 78 83 81 76 81 74 72 76 80 82 82 80 72 63 59 61 57 54 53 52 52 56 58 59 59 60 62 66 68 70 73 74 73 72
68 75 75 73 81 82 83 86 81 74 81 83 84 86 82 83 74 73 60 61 67 68 68 62 48 38 35 37 45 56 57 58 62 63 64 66 69 72 74 76 78 80 80
65 75 82 84 84 86 92 84 79 78 76 81 80 79 77 74 68 64 60 54 54 60 58 51 44 40 46 56 43 43 48 54 59 64 70 74 78 81 83 84 85 86 86
70 80 85 90 89 87 88 85 74 66 63 69 70 67 64 63 61 51 51 47 42 32 42 45 48 48 61 48 51 58 65 65 66 71 76 81 87 92 94 93 93 91 87
65 68 67 74 67 64 71 61 55 53 56 54 51 45 42 37 35 41 40 43 40 41 48 55 58 57 54 57 60 66 72 75 78 81 84 90 96 99 101 101 101 98 95
48 47 46 47 53 49 38 43 42 34 39 27 24 21 22 23 24 26 32 45 53 58 59 70 66 59 67 74 79 82 84 89 93 95 90 95 97 100 104 105 106 105 104
24 24 25 22 22 23 26 22 18 20 23 29 34 35 35 43 52 58 57 52 47 42 50 71 75 78 83 83 81 81 82 83 88 91 89 91 94 95 97 99 103 106 107
27 25 21 21 18 15 14 12 14 13 12 4 6 7 12 17 23 28 33 36 39 44 49 61 74 74 76 75 79 81 83 88 91 94 96 97 96 96 97 96 96 98 101
40 40 39 38 36 30 31 25 21 17 11 9 13 15 17 20 22 26 30 35 39 45 51 59 68 72 73 73 72 78 91 93 104 105 109 109 108 111 110 107 105 105 102
50 47 44 42 39 37 36 28 24 23 21 19 19 19 21 23 28 33 40 44 46 47 49 53 59 65 64 67 70 76 85 95 97 85 88 93 92 99 109 113 116 116 104
47 44 45 42 43 47 39 34 30 29 28 29 30 30 28 29 33 37 41 43 44 45 47 50 58 68 76 79 85 86 84 90 100 80 85 112 94 108 102 101 106 100 95
49 53 54 51 50 48 44 41 37 35 33 34 35 36 41 44 45 47 48 48 47 47 49 55 62 66 73 77 84 92 92 93 101 108 101 124 91 94 87 92 91 95 92
51 52 53 53 51 52 45 42 40 40 40 42 43 44 45 47 53 58 60 59 59 56 57 61 64 66 67 71 73 76 84 95 104 108 99 118 114 109 102 105 108 89 84
51 52 50 48 48 49 46 45 41 41 43 46 49 50 52 56 62 67 69 69 68 66 65 65 67 69 72 74 75 83 88 95 112 113 93 55 75 110 111 116 93 76 80
51 49 48 49 46 45 41 40 42 42 45 49 52 56 59 64 67 71 74 72 74 76 79 79 77 77 78 78 76 72 76 83 88 91 58 92 92 76 79 85 77 99 89
Wind_Direction_850mb
190 189 190 192 193 196 201 200 203 209 209 207 210 220 228 230 237 245 250 241 231 209 230 238 255 253 277 302 302 304 306 309 301 294 290 290 291 290 292 294 291 289 293
192 193 194 195 196 199 204 203 212 216 218 221 226 229 233 237 244 249 250 244 235 216 227 235 250 252 262 287 291 297 300 303 298 291 287 285 285 285 286 288 289 287 287
197 198 197 200 201 203 205 205 205 216 225 230 233 236 240 244 247 249 250 243 238 231 218 230 238 249 258 275 285 290 292 293 292 287 284 283 282 283 284 288 289 288 283
201 201 203 206 205 206 210 213 218 230 242 238 240 241 243 245 248 249 248 245 244 239 239 234 246 259 268 274 278 283 285 287 286 284 282 281 282 283 285 286 286 284 280
205 206 209 210 205 211 216 222 225 233 249 244 243 245 246 248 250 251 250 249 248 244 245 247 253 258 265 271 275 277 280 283 283 281 280 280 282 284 284 284 284 282 283
209 211 213 212 207 213 222 224 228 239 245 252 250 250 250 251 252 252 252 250 249 247 248 249 253 258 263 266 268 271 274 277 277 275 276 278 280 281 281 281 282 283 284
214 215 219 215 217 217 221 228 234 239 241 245 251 254 254 255 255 254 253 252 250 249 249 251 255 259 262 265 266 266 269 271 271 273 274 275 275 276 277 277 279 281 281
220 222 227 223 224 216 227 234 236 241 244 244 247 251 260 263 261 259 258 256 254 252 253 253 257 261 265 265 265 266 266 266 268 271 273 273 273 274 274 277 279 278 278
230 228 228 227 230 227 230 238 240 245 251 250 250 242 246 249 268 268 264 261 258 256 256 257 260 264 266 266 266 266 266 266 266 268 271 272 273 274 275 275 275 275 275
235 235 234 233 234 235 237 239 247 248 252 251 251 248 254 255 265 278 276 273 266 263 262 261 263 267 266 266 268 270 268 267 267 266 268 271 272 272 273 274 274 275 275
236 238 238 237 238 237 239 241 248 250 253 251 257 259 255 256 256 259 270 271 268 270 268 266 266 269 269 271 272 274 273 272 270 270 270 271 271 272 272 274 274 275 276
237 237 239 239 241 240 239 241 251 252 252 260 257 256 259 262 264 260 262 267 272 274 271 268 270 270 271 275 278 282 279 276 276 275 274 274 274 275 273 275 275 275 275
243 244 245 245 245 243 243 245 249 255 252 254 256 257 260 264 263 268 272 275 274 276 276 274 269 267 273 280 290 281 280 280 278 279 279 278 277 277 276 276 277 277 276
258 255 253 247 248 244 245 245 252 257 253 253 257 260 264 265 261 263 268 270 277 274 269 266 269 278 288 289 281 283 285 283 283 283 282 281 280 279 279 280 280 279 278
260 262 258 247 242 241 247 246 248 250 253 258 261 264 264 264 261 260 263 266 269 282 280 275 282 290 286 279 280 283 282 285 285 286 285 283 284 282 282 282 281 279 275
257 258 256 252 248 253 251 242 247 251 257 260 262 264 257 255 253 264 266 268 266 277 280 282 280 282 281 280 278 284 281 282 282 284 285 282 282 281 281 281 280 277 274
275 283 284 278 272 269 272 258 255 249 246 260 263 265 270 272 281 269 267 268 271 269 277 283 283 283 285 283 282 285 286 284 281 282 284 282 281 280 280 280 279 277 275
339 340 327 311 299 283 260 293 291 307 312 305 295 285 274 270 264 266 268 272 275 287 293 296 297 298 299 301 301 301 298 294 291 289 288 286 284 284 283 282 281 280 278
53 57 56 55 57 46 49 46 47 52 48 332 272 290 293 296 296 300 306 306 303 298 295 298 300 303 306 311 311 307 306 303 300 299 297 294 293 291 289 287 284 282 280
75 73 72 71 73 72 66 60 58 59 53 15 357 346 339 336 332 327 325 325 322 320 318 316 313 316 321 323 321 319 314 312 310 308 304 303 301 300 299 296 294 291 288
81 82 82 81 79 74 65 56 53 56 52 41 32 18 2 349 338 338 336 332 329 325 325 322 320 320 324 326 323 318 314 313 311 308 304 304 303 300 299 298 297 298 295
80 76 70 68 69 68 60 53 42 34 26 17 16 14 10 1 358 358 355 352 348 347 340 328 325 324 320 317 313 312 311 309 311 312 308 302 298 294 293 292 292 290 285
74 68 65 62 62 62 59 56 49 47 43 40 32 25 18 12 6 2 357 351 346 342 334 329 326 325 322 322 318 318 316 311 307 306 307 298 300 296 293 298 293 289 282
66 65 63 63 64 65 61 56 50 46 41 37 30 23 14 6 0 353 349 346 342 339 334 333 330 327 325 323 323 319 315 312 306 308 312 305 308 305 301 290 287 287 286
66 63 62 61 60 63 57 52 47 42 36 30 22 14 6 360 355 348 345 342 338 334 332 331 328 324 324 324 326 323 325 323 318 318 325 306 304 307 310 308 310 303 293
64 63 60 57 53 53 48 41 33 29 23 16 10 4 359 353 347 342 339 338 335 332 334 331 328 329 331 332 334 334 330 325 322 320 309 317 314 316 313 314 308 307 307